| time (UTC) | temp F | wind direction | speed MPH | gust MPH | rain 1hr in | rain 24hr in | rain mn in | humidity % | barometer mb |
| 20260905234558 | 77 | 0 | 0.0 | 0.0 | 0.04 | 1.44 | 1.44 | 89 | 1013.6 |
| 20260905233049 | 77 | 0 | 0.0 | 0.0 | 0.04 | 1.43 | 1.43 | 89 | 1013.7 |
| 20260905231612 | 77 | 0 | 0.0 | 0.0 | 0.02 | 1.41 | 1.41 | 89 | 1013.6 |
| 20260905230058 | 78 | 0 | 0.0 | 0.0 | 0.05 | 1.41 | 1.41 | 89 | 1014.2 |
| 20260905224600 | 78 | 0 | 0.0 | 0.0 | 0.19 | 1.40 | 1.40 | 88 | 1014.2 |
| 20260905223057 | 78 | 0 | 0.0 | 2.0 | 0.55 | 1.39 | 1.39 | 88 | 1014.2 |
| 20260905221554 | 78 | 0 | 0.0 | 0.0 | 1.01 | 1.39 | 1.39 | 87 | 1014.0 |
| 20260905220106 | 79 | 193 | 0.0 | 4.0 | 1.16 | 1.36 | 1.36 | 87 | 1014.0 |
| 20260905214557 | 80 | 284 | 1.0 | 6.0 | 1.01 | 1.20 | 1.20 | 87 | 1013.9 |
| 20260905213058 | 81 | 207 | 1.0 | 4.0 | 0.64 | 0.83 | 0.83 | 85 | 1013.6 |
| 20260905211551 | 85 | 0 | 1.0 | 6.0 | 0.16 | 0.35 | 0.35 | 82 | 1014.1 |
| 20260905210051 | 86 | 0 | 1.0 | 6.0 | 0.00 | 0.19 | 0.19 | 78 | 1013.5 |
| 20260905204602 | 90 | 315 | 1.0 | 6.0 | 0.00 | 0.19 | 0.19 | 81 | 1013.4 |
| 20260905203057 | 89 | 220 | 0.0 | 3.0 | 0.00 | 0.19 | 0.19 | 83 | 1013.4 |
| 20260905201553 | 88 | 0 | 0.0 | 5.0 | 0.00 | 0.19 | 0.19 | 85 | 1013.7 |
| 20260905200104 | 87 | 167 | 1.0 | 5.0 | 0.00 | 0.19 | 0.19 | 86 | 1013.7 |
| 20260905194557 | 86 | 0 | 0.0 | 2.0 | 0.00 | 0.19 | 0.19 | 86 | 1014.0 |
| 20260905193107 | 85 | 0 | 0.0 | 3.0 | 0.00 | 0.19 | 0.19 | 86 | 1014.3 |
| 20260905191558 | 84 | 0 | 0.0 | 3.0 | 0.00 | 0.19 | 0.19 | 89 | 1013.9 |
| 20260905190103 | 83 | 167 | 0.0 | 2.0 | 0.00 | 0.19 | 0.19 | 89 | 1013.8 |
| 20260905184608 | 82 | 0 | 0.0 | 4.0 | 0.00 | 0.19 | 0.19 | 90 | 1013.9 |
| 20260905183059 | 82 | 158 | 0.0 | 3.0 | 0.01 | 0.19 | 0.19 | 90 | 1014.5 |
| 20260905181552 | 81 | 145 | 0.0 | 3.0 | 0.06 | 0.19 | 0.19 | 90 | 1014.8 |
| 20260905174557 | 79 | 0 | 0.0 | 3.0 | 0.19 | 0.19 | 0.19 | 88 | 1015.0 |
| 20260905173054 | 80 | 0 | 1.0 | 7.0 | 0.18 | 0.18 | 0.18 | 87 | 1015.1 |
| 20260905171723 | 80 | 54 | 1.0 | 11.0 | 0.12 | 0.12 | 0.12 | 86 | 1015.4 |
| 20260905171603 | 80 | 54 | 1.0 | 11.0 | 0.12 | 0.12 | 0.12 | 86 | 1015.4 |
| 20260905170107 | 83 | 27 | 1.0 | 9.0 | 0.06 | 0.06 | 0.06 | 85 | 1015.5 |
| 20260905164559 | 87 | 319 | 1.0 | 6.0 | 0.00 | 0.00 | 0.00 | 81 | 1015.4 |
| 20260905163052 | 88 | 0 | 0.0 | 3.0 | 0.00 | 0.00 | 0.00 | 84 | 1015.2 |
| 20260905161550 | 87 | 327 | 1.0 | 4.0 | 0.00 | 0.00 | 0.00 | 85 | 1015.4 |
| 20260905160052 | 86 | 0 | 0.0 | 4.0 | 0.00 | 0.00 | 0.00 | 87 | 1015.6 |
| 20260905154554 | 86 | 0 | 0.0 | 4.0 | 0.00 | 0.00 | 0.00 | 87 | 1015.6 |
| 20260905153053 | 85 | 0 | 0.0 | 3.0 | 0.00 | 0.00 | 0.00 | 88 | 1015.6 |
| 20260905151551 | 84 | 0 | 0.0 | 4.0 | 0.00 | 0.00 | 0.00 | 89 | 1015.5 |
| 20260905150058 | 83 | 0 | 0.0 | 4.0 | 0.00 | 0.00 | 0.00 | 90 | 1015.5 |
| 20260905144554 | 82 | 0 | 0.0 | 3.0 | 0.00 | 0.00 | 0.00 | 91 | 1015.7 |
| 20260905143056 | 82 | 0 | 0.0 | 2.0 | 0.00 | 0.00 | 0.00 | 91 | 1015.6 |
| 20260905141551 | 81 | 0 | 0.0 | 2.0 | 0.00 | 0.00 | 0.00 | 92 | 1015.6 |
| 20260905140058 | 80 | 18 | 0.0 | 3.0 | 0.00 | 0.00 | 0.00 | 92 | 1015.6 |
| 20260905134558 | 80 | 0 | 0.0 | 2.0 | 0.00 | 0.00 | 0.00 | 92 | 1015.6 |
| 20260905133052 | 79 | 0 | 0.0 | 2.0 | 0.00 | 0.00 | 0.00 | 92 | 1015.4 |
| 20260905131554 | 78 | 0 | 0.0 | 0.0 | 0.00 | 0.00 | 0.00 | 93 | 1015.4 |
| 20260905130059 | 78 | 0 | 0.0 | 0.0 | 0.00 | 0.00 | 0.00 | 92 | 1015.5 |
| 20260905124555 | 78 | 0 | 0.0 | 0.0 | 0.00 | 0.00 | 0.00 | 92 | 1015.5 |
| 20260905123055 | 77 | 0 | 0.0 | 0.0 | 0.00 | 0.00 | 0.00 | 91 | 1015.5 |
| 20260905121559 | 77 | 0 | 0.0 | 0.0 | 0.00 | 0.00 | 0.00 | 91 | 1015.3 |
| 20260905114555 | 76 | 0 | 0.0 | 0.0 | 0.00 | 0.00 | 0.00 | 91 | 1015.2 |
| 20260905113051 | 76 | 0 | 0.0 | 0.0 | 0.00 | 0.00 | 0.00 | 91 | 1014.7 |
| 20260905111619 | 76 | 0 | 0.0 | 0.0 | 0.00 | 0.00 | 0.00 | 91 | 1014.3 |
| 20260905110055 | 76 | 0 | 0.0 | 0.0 | 0.00 | 0.00 | 0.00 | 91 | 1014.2 |
| 20260905104550 | 76 | 0 | 0.0 | 0.0 | 0.00 | 0.00 | 0.00 | 90 | 1014.2 |
| 20260905103102 | 76 | 0 | 0.0 | 0.0 | 0.00 | 0.00 | 0.00 | 90 | 1014.2 |
| 20260905101559 | 76 | 0 | 0.0 | 0.0 | 0.00 | 0.00 | 0.00 | 90 | 1014.2 |
| 20260905100108 | 76 | 0 | 0.0 | 0.0 | 0.00 | 0.00 | 0.00 | 89 | 1014.2 |
| 20260905094558 | 76 | 0 | 0.0 | 0.0 | 0.00 | 0.00 | 0.00 | 90 | 1014.2 |
| 20260905093056 | 76 | 0 | 0.0 | 0.0 | 0.00 | 0.00 | 0.00 | 90 | 1014.3 |
| 20260905091604 | 76 | 0 | 0.0 | 0.0 | 0.00 | 0.00 | 0.00 | 89 | 1014.3 |
| 20260905090057 | 76 | 0 | 0.0 | 0.0 | 0.00 | 0.00 | 0.00 | 89 | 1014.2 |
| 20260905084553 | 77 | 0 | 0.0 | 0.0 | 0.00 | 0.00 | 0.00 | 89 | 1014.2 |
| 20260905083050 | 77 | 0 | 0.0 | 0.0 | 0.00 | 0.00 | 0.00 | 89 | 1014.2 |
| 20260905081604 | 77 | 0 | 0.0 | 0.0 | 0.00 | 0.00 | 0.00 | 89 | 1014.2 |
| 20260905074551 | 77 | 0 | 0.0 | 0.0 | 0.00 | 0.00 | 0.00 | 89 | 1014.2 |
| 20260905073049 | 77 | 0 | 0.0 | 0.0 | 0.00 | 0.00 | 0.00 | 89 | 1014.2 |
| 20260905071559 | 77 | 0 | 0.0 | 0.0 | 0.00 | 0.00 | 0.00 | 88 | 1014.3 |
| 20260905070100 | 77 | 0 | 0.0 | 0.0 | 0.00 | 0.00 | 0.00 | 88 | 1014.4 |
| 20260905064552 | 77 | 0 | 0.0 | 0.0 | 0.00 | 0.00 | 0.00 | 88 | 1014.4 |
| 20260905063059 | 77 | 0 | 0.0 | 0.0 | 0.00 | 0.00 | 0.00 | 88 | 1014.4 |
| 20260905061609 | 77 | 0 | 0.0 | 0.0 | 0.00 | 0.00 | 0.00 | 88 | 1014.4 |
| 20260905060058 | 77 | 0 | 0.0 | 0.0 | 0.00 | 0.00 | 0.00 | 87 | 1014.4 |
| 20260905054552 | 77 | 0 | 0.0 | 0.0 | 0.00 | 0.00 | 0.00 | 87 | 1014.4 |
| 20260905053054 | 77 | 0 | 0.0 | 0.0 | 0.00 | 0.00 | 0.00 | 87 | 1014.5 |
| 20260905051548 | 77 | 0 | 0.0 | 0.0 | 0.00 | 0.00 | 0.00 | 88 | 1014.5 |
| 20260905050059 | 78 | 0 | 0.0 | 0.0 | 0.00 | 0.00 | 0.00 | 88 | 1014.5 |
| 20260905044603 | 78 | 0 | 0.0 | 0.0 | 0.00 | 0.00 | 0.00 | 86 | 1014.6 |
| 20260905043051 | 78 | 0 | 0.0 | 0.0 | 0.00 | 0.00 | 0.00 | 86 | 1014.6 |
| 20260905041558 | 78 | 0 | 0.0 | 0.0 | 0.00 | 0.00 | 0.00 | 86 | 1014.8 |
| 20260905040056 | 78 | 0 | 0.0 | 0.0 | 0.00 | 0.00 | 0.00 | 85 | 1014.9 |
| 20260905034553 | 78 | 0 | 0.0 | 0.0 | 0.00 | 0.00 | 0.00 | 84 | 1015.0 |
| 20260905033048 | 79 | 0 | 0.0 | 0.0 | 0.00 | 0.00 | 0.00 | 84 | 1015.0 |
| 20260905031554 | 79 | 0 | 0.0 | 0.0 | 0.00 | 0.00 | 0.00 | 84 | 1015.2 |
| 20260905024555 | 79 | 0 | 0.0 | 0.0 | 0.00 | 0.00 | 0.00 | 83 | 1015.3 |
| 20260905023049 | 79 | 0 | 0.0 | 0.0 | 0.00 | 0.00 | 0.00 | 84 | 1015.4 |
| 20260905021557 | 80 | 0 | 0.0 | 0.0 | 0.00 | 0.00 | 0.00 | 83 | 1015.3 |
| 20260905020105 | 80 | 0 | 0.0 | 0.0 | 0.00 | 0.00 | 0.00 | 82 | 1015.1 |
| 20260905014553 | 80 | 0 | 0.0 | 0.0 | 0.00 | 0.00 | 0.00 | 82 | 1015.0 |
| 20260905013049 | 81 | 0 | 0.0 | 0.0 | 0.00 | 0.00 | 0.00 | 81 | 1014.7 |
| 20260905011559 | 81 | 0 | 0.0 | 0.0 | 0.00 | 0.00 | 0.00 | 81 | 1014.4 |
| 20260905010100 | 82 | 0 | 0.0 | 0.0 | 0.00 | 0.00 | 0.00 | 80 | 1014.3 |
| 20260905004610 | 82 | 0 | 0.0 | 1.0 | 0.00 | 0.00 | 0.00 | 81 | 1014.4 |
| 20260905003051 | 83 | 0 | 0.0 | 2.0 | 0.00 | 0.00 | 0.00 | 81 | 1014.7 |
| 20260905001548 | 84 | 0 | 0.0 | 2.0 | 0.00 | 0.00 | 0.00 | 81 | 1014.7 |
| 20260905000058 | 84 | 0 | 0.0 | 3.0 | 0.00 | 0.00 | 0.00 | 80 | 1014.5 |